Location: Musselshell
(46.5176°N, 108.0911°W)
Time: 10:46:21
(UTC+00:00)

EO-88 - Pass Details

Date: 29 June 2022
Orbit: 453 x 462 km, 97.3° (Epoch: 10 August)

Event Time Altitude Azimuth Distance (km) Brightness Sun altitude
Exits shadow 05:44:51 - 231° (SW) 1,805 ? -17.3°
Reaches altitude 10° 05:45:38 10° 241° (WSW) 1,629 ? -17.3°
Maximum altitude 05:47:17 13° 270° (W) 1,465 ? -17.4°
Drops below altitude 10° 05:48:56 10° 298° (WNW) 1,636 ? -17.5°
Sets 05:51:59 0° 328° (NNW) 2,519 ? -17.7°
